ASTROCAST-0203 (48955 NORAD) Tracking and Keplerian Element Data

This shows tracking and keplerian element data for the satellite.

Feedback or suggestion? Click here.




ElementValue
Catalog48955
NameASTROCAST-0203
Epoch Orbit514
Epoch Day210.80580333
Epoch Year2021
RAAN339.1909
Inclination97.5139
Eccentricity0.0018109
Argument of Perigee135.8035
Mean Anonmoly224.4646
Mean Motion15.13829334
Decay Rate7.08E-06
L11 48955U 21059CE 21210.80580333 .00000708 00000-0 42685-4 0 9998
L22 48955 97.5139 339.1909 0018109 135.8035 224.4646 15.13829334 5142

Live tracking and technical data element details for ASTROCAST-0203 (NORAD 48955). ASTROCAST-0203 can be tracked NOW for your location showing map with azimuth and elevation plus other details from your city location.

Track the satellite on the map from your city or location and see movement details for azimuth, elevation, latitude, longitude, range, height, and movement on the map or in text.







IsCatalogInMostPopularTable: catalog: 48955, numindb: 1
Update: records affected: 1



GetName: 48955 ASTROCAST-0203

Hit Count: updated at: Sat, 31 Jul 2021 15:39:27 GMT